SCP
-0 -0 -0 -0 -0 -0 -0 -0 0 0 0 0 0 0 0 0 0 0 0 0 0 0 -0 0 0 0 -0 0 -0 0 0 0
-0 -0 -0 -0 -0 -0 -0 -0 0 0 0 0 0 0 0 0 0 0 0 0 0 -0 -0 -0 -0 -0 -0 0 -0 0 0 0
-0 -0 -0 -0 -0 -0 -0 0 0 0 0 0 0 0 0 0 0 0 0 0 0 0 0 -0 -0 -0 0 0 0 0 0 0
-0 -0 -0 -0 -0 -0 -0 0 0 0 0 0 0 0 0 0 0 0 0 -0 -0 -0 -0 -0 -0 -0 0 0 -0 -0 -0 -0
-0 -0 -0 -0 0 0 0 0 0 0 0 0 0 -0 -0 -0 -0 -0 -0 0 -0 -0 -0 0 0 -0 -0 -0 -0 -0 -0 -0
-0 0 -0 -0 0 0 0 0 0 0 0 0 -0 -0 -0 -0 0 0 0 0 0 0 0 0 0 0 -0 -0 -0 0 -0 0
-0 -0 -0 -0 -0 0 0 0 0 0 -0 -0 -0 -0 -0 0 0 0 0 0 0 0 0 0 -0 0 -0 0 0 -0 0 0
-0 -0 -0 -0 -0 -0 0 -0 -0 -0 -0 -0 -0 -0 -0 0 0 0 0 0 0 0 0 0 0 0 0 0 0 0 0 0
-0 -0 -0 -0 0 -0 -0 -0 -0 -0 -0 -0 -0 -0 0 0 0 0 0 0 0 0 0 0 0 0 0 0 0 0 0 0
-0 0 0 0 0 -0 -0 -0 -0 -0 -0 -0 -0 -0 -0 0 0 0 0 0 0 0 0 0 0 0 0 0 0 0 0 0
0 0 0 0 0 -0 -0 -0 -0 -0 -0 -0 0 0 0 0 0 0 0 0 0 0 0 0 0 0 0 0 0 0 0 0
0 0 0 0 0 0 -0 -0 0 0 0 0 0 0 0 0 0 0 0 0 0 0 0 0 0 0 0 0 0 0 0 0
0 0 0 0 0 0 0 0 0 0 0 0 0 0 0 0 0 0 0 0 0 0 0 0 0 0 0 0 0 0 0 0
0 0 0 0 0 0 0 0 0 0 0 0 0 0 0 0 0 0 0 0 0 0 0 0 0 0 0 0 0 0 0 0
0 0 0 0 0 0 0 0 0 0 0 0 0 0 0 0 0 0 0 0 0 0 0 0 0 0 0 0 0 0 0 0
0 0 0 0 0 0 0 0 0 0 0 0 0 0 0 0 0 0 0 0 0 0 0 0 0 0 0 0 0 0 0 0
0 0 0 0 0 0 0 0 0 0 0 0 0 0 0 0 0 0 0 0 0 0 0 0 0 0 0 0 0 0 0 0
0 -0 0 0 0 0 0 0 0 0 0 0 0 0 0 0 0 0 0 0 0 0 0 0 0 0 0 0 0 0 0 0
0 0 -0 0 0 0 0 0 0 0 0 0 0 0 0 0 0 0 0 0 0 0 0 0 0 0 0 0 0 0 0 0
Wind_Speed_500mb
61 60 58 55 55 53 52 54 56 56 52 48 44 41 38 36 34 32 31 29 27 28 30 34 33 29 26 22 17 13 12 14
64 62 60 58 57 54 53 55 55 54 51 46 40 38 35 32 32 29 28 26 23 24 27 29 28 26 20 16 13 12 9 8
63 62 62 61 58 54 54 55 55 52 49 44 39 35 31 30 30 28 26 25 23 23 22 23 23 23 19 15 10 9 9 7
62 64 64 63 58 54 55 56 54 51 46 41 36 31 29 28 28 27 27 26 26 25 24 22 23 21 18 15 12 11 13 12
61 63 66 66 62 58 55 54 52 49 44 39 34 31 28 27 27 28 27 27 27 25 23 22 22 21 13 10 14 8 8 7
66 66 67 67 63 58 54 52 50 47 43 39 36 33 31 27 30 27 25 25 25 22 20 17 17 18 16 16 13 17 15 10
72 71 70 68 63 59 54 52 50 48 46 42 39 38 36 34 33 29 29 26 28 24 19 12 10 13 13 9 6 3 6 9
74 74 73 70 66 63 58 53 51 49 46 44 43 40 38 37 34 30 24 23 24 22 18 14 10 12 9 4 5 9 11 2
79 74 74 73 69 65 60 56 52 50 48 47 47 42 38 37 35 33 28 28 30 29 24 19 19 13 9 8 14 19 19 12
74 75 78 74 71 67 62 57 53 50 49 46 49 45 39 37 38 34 30 37 31 27 27 22 18 16 12 15 19 21 17 14
70 72 78 75 71 67 63 59 55 52 49 50 48 47 47 39 36 35 32 34 27 25 25 21 21 21 21 22 21 22 20 17
72 65 81 77 72 68 61 53 57 55 56 55 54 52 48 43 37 35 31 31 32 32 29 27 30 32 28 21 22 22 23 18
75 75 77 77 76 72 63 53 57 62 62 60 57 53 46 41 43 43 37 35 35 34 34 34 32 28 22 20 23 25 23 20
87 74 82 82 80 75 68 63 60 64 62 64 61 58 51 47 44 45 47 46 44 44 42 38 35 29 25 22 22 22 22 19
89 79 85 82 76 73 74 75 65 65 70 69 65 63 59 52 47 45 45 50 49 43 38 35 33 29 24 22 24 21 22 19
94 89 93 86 86 85 80 76 74 70 70 68 66 64 59 53 50 49 49 49 46 42 38 33 32 28 20 19 23 30 29 22
115 105 99 96 99 97 86 82 79 77 74 71 68 62 56 51 46 42 43 45 43 38 34 31 34 30 20 24 35 46 30 25
115 113 108 111 108 104 105 91 84 80 76 70 62 55 48 44 42 40 39 39 39 38 37 35 31 28 26 32 48 32 26 17
64 110 114 120 116 108 103 98 93 92 82 72 61 50 44 41 40 37 37 36 35 31 29 29 27 27 29 32 57 47 28 27
Wind_Direction_500mb
167 163 166 168 167 164 161 160 157 154 152 149 144 138 135 132 131 130 127 125 122 115 110 112 112 119 125 127 126 117 106 98
166 166 167 171 170 166 163 162 160 159 157 154 148 142 139 136 135 134 131 128 124 119 117 119 122 128 131 130 131 117 113 95
169 169 170 172 172 169 167 165 163 163 161 159 154 149 146 141 138 135 132 129 128 128 127 125 123 124 122 121 122 118 111 133
174 172 173 174 173 172 171 168 167 166 166 164 159 154 149 145 141 136 131 127 125 127 127 124 119 116 101 101 105 107 104 102
178 179 177 177 176 175 174 173 171 171 170 169 164 159 154 147 142 135 128 125 123 122 119 117 115 107 101 101 115 89 104 136
184 183 183 181 180 178 176 176 176 175 174 172 167 161 155 148 144 138 138 134 130 129 128 120 117 108 116 95 104 92 90 109
188 187 188 186 183 181 181 180 178 178 176 173 169 161 157 148 140 137 136 133 136 138 138 136 131 134 141 114 98 107 82 61
191 190 191 190 186 184 185 182 180 180 177 176 173 170 166 165 159 154 154 152 154 169 175 171 158 161 163 166 313 308 300 308
196 194 194 193 190 188 186 184 183 183 182 181 178 179 180 179 179 175 175 181 186 187 194 195 195 207 217 254 272 279 285 286
200 201 196 194 194 191 191 189 187 188 187 187 188 190 193 195 195 193 192 197 201 202 207 211 216 225 245 264 273 269 276 288
205 205 200 197 196 195 193 194 192 192 191 191 196 201 204 207 209 210 205 205 209 209 216 236 251 262 277 277 267 257 266 278
207 205 202 200 197 197 192 192 196 195 192 192 199 206 209 215 221 223 218 215 216 225 237 252 261 269 277 273 271 261 261 267
208 209 201 199 195 193 191 190 191 195 198 200 206 210 209 215 221 224 225 227 230 237 247 260 267 268 268 272 276 270 258 257
207 207 201 196 195 194 198 200 201 202 205 207 212 218 216 218 224 230 236 239 240 244 251 256 259 258 263 266 258 254 245 228
210 210 206 200 197 198 202 206 212 211 216 217 218 218 218 222 229 237 243 243 242 244 245 248 250 257 261 256 249 224 199 192
213 209 205 204 200 198 201 203 202 203 202 205 208 211 218 228 236 243 243 238 239 240 242 248 259 261 253 233 211 176 161 169
213 212 207 205 201 204 206 206 205 199 198 203 207 214 222 232 238 236 234 234 236 241 244 248 259 258 235 205 193 177 153 161
214 209 208 205 204 209 211 208 204 203 203 203 207 213 218 226 233 235 236 237 239 242 250 254 255 247 228 198 192 182 164 178
223 211 208 207 205 209 210 212 214 212 210 211 212 213 222 229 234 239 243 244 246 247 251 251 247 235 222 207 196 198 197 193
Wind_Speed_850mb
61 60 58 55 55 53 52 54 56 56 52 48 44 41 38 36 34 32 31 29 27 28 30 34 33 29 26 22 17 13 12 14
64 62 60 58 57 54 53 55 55 54 51 46 40 38 35 32 32 29 28 26 23 24 27 29 28 26 20 16 13 12 9 8
63 62 62 61 58 54 54 55 55 52 49 44 39 35 31 30 30 28 26 25 23 23 22 23 23 23 19 15 10 9 9 7
62 64 64 63 58 54 55 56 54 51 46 41 36 31 29 28 28 27 27 26 26 25 24 22 23 21 18 15 12 11 13 12
61 63 66 66 62 58 55 54 52 49 44 39 34 31 28 27 27 28 27 27 27 25 23 22 22 21 13 10 14 8 8 7
66 66 67 67 63 58 54 52 50 47 43 39 36 33 31 27 30 27 25 25 25 22 20 17 17 18 16 16 13 17 15 10
72 71 70 68 63 59 54 52 50 48 46 42 39 38 36 34 33 29 29 26 28 24 19 12 10 13 13 9 6 3 6 9
74 74 73 70 66 63 58 53 51 49 46 44 43 40 38 37 34 30 24 23 24 22 18 14 10 12 9 4 5 9 11 2
79 74 74 73 69 65 60 56 52 50 48 47 47 42 38 37 35 33 28 28 30 29 24 19 19 13 9 8 14 19 19 12
74 75 78 74 71 67 62 57 53 50 49 46 49 45 39 37 38 34 30 37 31 27 27 22 18 16 12 15 19 21 17 14
70 72 78 75 71 67 63 59 55 52 49 50 48 47 47 39 36 35 32 34 27 25 25 21 21 21 21 22 21 22 20 17
72 65 81 77 72 68 61 53 57 55 56 55 54 52 48 43 37 35 31 31 32 32 29 27 30 32 28 21 22 22 23 18
75 75 77 77 76 72 63 53 57 62 62 60 57 53 46 41 43 43 37 35 35 34 34 34 32 28 22 20 23 25 23 20
87 74 82 82 80 75 68 63 60 64 62 64 61 58 51 47 44 45 47 46 44 44 42 38 35 29 25 22 22 22 22 19
89 79 85 82 76 73 74 75 65 65 70 69 65 63 59 52 47 45 45 50 49 43 38 35 33 29 24 22 24 21 22 19
94 89 93 86 86 85 80 76 74 70 70 68 66 64 59 53 50 49 49 49 46 42 38 33 32 28 20 19 23 30 29 22
115 105 99 96 99 97 86 82 79 77 74 71 68 62 56 51 46 42 43 45 43 38 34 31 34 30 20 24 35 46 30 25
115 113 108 111 108 104 105 91 84 80 76 70 62 55 48 44 42 40 39 39 39 38 37 35 31 28 26 32 48 32 26 17
64 110 114 120 116 108 103 98 93 92 82 72 61 50 44 41 40 37 37 36 35 31 29 29 27 27 29 32 57 47 28 27
Wind_Direction_850mb
167 163 166 168 167 164 161 160 157 154 152 149 144 138 135 132 131 130 127 125 122 115 110 112 112 119 125 127 126 117 106 98
166 166 167 171 170 166 163 162 160 159 157 154 148 142 139 136 135 134 131 128 124 119 117 119 122 128 131 130 131 117 113 95
169 169 170 172 172 169 167 165 163 163 161 159 154 149 146 141 138 135 132 129 128 128 127 125 123 124 122 121 122 118 111 133
174 172 173 174 173 172 171 168 167 166 166 164 159 154 149 145 141 136 131 127 125 127 127 124 119 116 101 101 105 107 104 102
178 179 177 177 176 175 174 173 171 171 170 169 164 159 154 147 142 135 128 125 123 122 119 117 115 107 101 101 115 89 104 136
184 183 183 181 180 178 176 176 176 175 174 172 167 161 155 148 144 138 138 134 130 129 128 120 117 108 116 95 104 92 90 109
188 187 188 186 183 181 181 180 178 178 176 173 169 161 157 148 140 137 136 133 136 138 138 136 131 134 141 114 98 107 82 61
191 190 191 190 186 184 185 182 180 180 177 176 173 170 166 165 159 154 154 152 154 169 175 171 158 161 163 166 313 308 300 308
196 194 194 193 190 188 186 184 183 183 182 181 178 179 180 179 179 175 175 181 186 187 194 195 195 207 217 254 272 279 285 286
200 201 196 194 194 191 191 189 187 188 187 187 188 190 193 195 195 193 192 197 201 202 207 211 216 225 245 264 273 269 276 288
205 205 200 197 196 195 193 194 192 192 191 191 196 201 204 207 209 210 205 205 209 209 216 236 251 262 277 277 267 257 266 278
207 205 202 200 197 197 192 192 196 195 192 192 199 206 209 215 221 223 218 215 216 225 237 252 261 269 277 273 271 261 261 267
208 209 201 199 195 193 191 190 191 195 198 200 206 210 209 215 221 224 225 227 230 237 247 260 267 268 268 272 276 270 258 257
207 207 201 196 195 194 198 200 201 202 205 207 212 218 216 218 224 230 236 239 240 244 251 256 259 258 263 266 258 254 245 228
210 210 206 200 197 198 202 206 212 211 216 217 218 218 218 222 229 237 243 243 242 244 245 248 250 257 261 256 249 224 199 192
213 209 205 204 200 198 201 203 202 203 202 205 208 211 218 228 236 243 243 238 239 240 242 248 259 261 253 233 211 176 161 169
213 212 207 205 201 204 206 206 205 199 198 203 207 214 222 232 238 236 234 234 236 241 244 248 259 258 235 205 193 177 153 161
214 209 208 205 204 209 211 208 204 203 203 203 207 213 218 226 233 235 236 237 239 242 250 254 255 247 228 198 192 182 164 178
223 211 208 207 205 209 210 212 214 212 210 211 212 213 222 229 234 239 243 244 246 247 251 251 247 235 222 207 196 198 197 193